WJA1022 KLAX-CYYC

Flight info

Callsign WJA1022
Flight time N/A
Altitude 38000
Route LADYJ4 CSTRO DCT FMG DCT EVANT/N0442F370 DCT KS21K/N0440F380 DCT ANTAK IGVEP7
Aircraft B38M/M-SDE1FGHILORVWXY/HB1

Departure

Time 2026-04-22 00:25
Airport Los Angeles International Airport (KLAX)

Arrival

Time N/A
Airport Calgary International Airport (CYYC)
Time Latitude Longitude Altitude Speed Heading
2026-04-22 00:08 33.94686 -118.40988 95 ft 0 kts 219°
2026-04-22 00:18 33.94697 -118.40976 95 ft 4 kts 220°
2026-04-22 00:18 33.94717 -118.40957 96 ft 4 kts 203°
2026-04-22 00:18 33.94737 -118.40957 96 ft 4 kts 135°
2026-04-22 00:19 33.94742 -118.40974 96 ft 3 kts 83°
2026-04-22 00:19 33.94740 -118.40999 96 ft 0 kts 83°
2026-04-22 00:21 33.94740 -118.40995 96 ft 2 kts 83°
2026-04-22 00:21 33.94742 -118.40970 96 ft 5 kts 83°
2026-04-22 00:22 33.94762 -118.40896 97 ft 12 kts 47°
2026-04-22 00:22 33.94833 -118.40852 97 ft 12 kts 61°
2026-04-22 00:22 33.94847 -118.40749 99 ft 13 kts 82°
2026-04-22 00:22 33.94860 -118.40632 97 ft 15 kts 83°
2026-04-22 00:23 33.94873 -118.40500 98 ft 17 kts 83°
2026-04-22 00:23 33.94886 -118.40370 96 ft 15 kts 83°
2026-04-22 00:23 33.94900 -118.40242 96 ft 13 kts 83°
2026-04-22 00:23 33.94911 -118.40132 96 ft 14 kts 83°
2026-04-22 00:24 33.94924 -118.40005 95 ft 16 kts 83°
2026-04-22 00:24 33.94956 -118.39924 96 ft 8 kts 33°
2026-04-22 00:24 33.95018 -118.39914 96 ft 10 kts 347°
2026-04-22 00:24 33.95042 -118.39962 98 ft 1 kts 262°
2026-04-22 00:25 33.95029 -118.40077 97 ft 46 kts 263°
2026-04-22 00:25 33.94956 -118.40776 101 ft 119 kts 262°
2026-04-22 00:25 33.94844 -118.41995 251 ft 165 kts 264°
2026-04-22 00:25 33.94679 -118.43375 1108 ft 164 kts 263°
2026-04-22 00:26 33.94531 -118.44740 1879 ft 169 kts 264°
2026-04-22 00:26 33.94398 -118.46237 2352 ft 193 kts 266°
2026-04-22 00:26 33.94332 -118.47911 3112 ft 208 kts 267°
2026-04-22 00:26 33.94266 -118.49736 3795 ft 228 kts 266°
2026-04-22 00:27 33.94140 -118.51718 4533 ft 246 kts 264°
2026-04-22 00:27 33.93979 -118.53808 5500 ft 251 kts 263°
2026-04-22 00:27 33.93871 -118.55225 6289 ft 252 kts 263°
2026-04-22 00:28 33.93814 -118.55976 6641 ft 254 kts 262°
2026-04-22 00:28 33.93652 -118.58123 7531 ft 261 kts 262°
2026-04-22 00:28 33.93493 -118.60307 8288 ft 261 kts 264°
2026-04-22 00:28 33.93786 -118.62473 9373 ft 269 kts 288°
2026-04-22 00:29 33.94885 -118.64366 10243 ft 289 kts 312°
2026-04-22 00:29 33.96585 -118.65712 11160 ft 295 kts 322°
2026-04-22 00:29 33.98366 -118.66979 12053 ft 300 kts 328°
2026-04-22 00:29 34.00431 -118.67588 13003 ft 316 kts 350°
2026-04-22 00:30 34.02659 -118.67487 13610 ft 318 kts 355°
2026-04-22 00:30 34.04869 -118.67358 13149 ft 322 kts 355°
2026-04-22 00:30 34.07131 -118.67269 13077 ft 328 kts 348°
2026-04-22 00:30 34.09343 -118.67888 13587 ft 331 kts 333°
2026-04-22 00:31 34.11570 -118.68795 14072 ft 345 kts 333°
2026-04-22 00:31 34.13875 -118.69724 14722 ft 350 kts 333°
2026-04-22 00:31 34.16192 -118.70662 15492 ft 354 kts 333°
2026-04-22 00:31 34.18531 -118.71607 16187 ft 355 kts 332°
2026-04-22 00:32 34.20888 -118.72560 16870 ft 359 kts 332°
2026-04-22 00:32 34.23260 -118.73521 17571 ft 361 kts 332°
2026-04-22 00:32 34.25651 -118.74489 18276 ft 364 kts 332°
2026-04-22 00:32 34.28064 -118.75467 18883 ft 366 kts 331°
2026-04-22 00:33 34.30479 -118.76447 19542 ft 367 kts 331°
2026-04-22 00:33 34.32909 -118.77433 20111 ft 370 kts 331°
2026-04-22 00:33 34.35360 -118.78429 20701 ft 373 kts 331°
2026-04-22 00:33 34.37828 -118.79433 21275 ft 376 kts 331°
2026-04-22 00:34 34.40273 -118.80425 21828 ft 377 kts 331°
2026-04-22 00:34 34.42771 -118.81443 22310 ft 382 kts 331°
2026-04-22 00:34 34.45298 -118.82472 22864 ft 384 kts 331°
2026-04-22 00:34 34.47832 -118.83503 23446 ft 385 kts 330°
2026-04-22 00:35 34.50388 -118.84545 23815 ft 390 kts 330°
2026-04-22 00:35 34.52973 -118.85601 24277 ft 391 kts 330°
2026-04-22 00:35 34.55568 -118.86661 24666 ft 396 kts 332°
2026-04-22 00:35 34.58178 -118.87727 25192 ft 396 kts 330°
2026-04-22 00:36 34.60804 -118.88801 25595 ft 400 kts 330°
2026-04-22 00:36 34.63450 -118.89884 26035 ft 402 kts 330°
2026-04-22 00:36 34.66110 -118.90976 26360 ft 406 kts 330°
2026-04-22 00:36 34.68792 -118.92071 26818 ft 406 kts 330°
2026-04-22 00:37 34.71469 -118.93166 27340 ft 405 kts 330°
2026-04-22 00:37 34.74136 -118.94263 27821 ft 404 kts 330°
2026-04-22 00:37 34.76800 -118.95357 28311 ft 403 kts 329°
2026-04-22 00:37 34.79455 -118.96439 28947 ft 400 kts 329°
2026-04-22 00:38 34.82082 -118.97526 29461 ft 398 kts 329°
2026-04-22 00:38 34.84698 -118.98605 29972 ft 397 kts 329°
2026-04-22 00:38 34.87317 -118.99683 30381 ft 396 kts 329°
2026-04-22 00:38 34.89938 -119.00767 30625 ft 398 kts 329°
2026-04-22 00:39 34.92548 -119.01839 31076 ft 395 kts 329°
2026-04-22 00:39 34.95155 -119.02913 31412 ft 395 kts 329°
2026-04-22 00:39 34.97754 -119.03987 31764 ft 394 kts 329°
2026-04-22 00:39 35.00345 -119.05057 32164 ft 392 kts 329°
2026-04-22 00:40 35.02921 -119.06121 32546 ft 390 kts 329°
2026-04-22 00:40 35.05458 -119.07171 32843 ft 390 kts 329°
2026-04-22 00:40 35.08030 -119.08236 33015 ft 394 kts 329°
2026-04-22 00:40 35.10661 -119.09327 32908 ft 405 kts 329°
2026-04-22 00:41 35.13361 -119.10444 32872 ft 414 kts 329°
2026-04-22 00:41 35.17964 -119.12352 32978 ft 426 kts 329°
2026-04-22 00:42 35.23720 -119.14743 32991 ft 442 kts 330°
2026-04-22 00:42 35.26614 -119.15945 33174 ft 445 kts 330°
2026-04-22 00:42 35.29538 -119.17162 33538 ft 444 kts 330°
2026-04-22 00:42 35.32464 -119.18381 33875 ft 444 kts 330°
2026-04-22 00:43 35.35392 -119.19600 34200 ft 444 kts 330°
2026-04-22 00:43 35.38310 -119.20817 34510 ft 443 kts 330°
2026-04-22 00:43 35.41225 -119.22033 34816 ft 442 kts 330°
2026-04-22 00:43 35.44154 -119.23209 35080 ft 448 kts 335°
2026-04-22 00:44 35.47299 -119.23724 35382 ft 462 kts 346°
2026-04-22 00:44 35.50490 -119.24048 35593 ft 461 kts 345°
2026-04-22 00:44 35.53692 -119.24387 35836 ft 461 kts 345°
2026-04-22 00:44 35.56887 -119.24707 36097 ft 461 kts 345°
2026-04-22 00:45 35.60082 -119.25014 36458 ft 460 kts 346°
2026-04-22 00:45 35.63255 -119.25324 36793 ft 456 kts 345°
2026-04-22 00:45 35.66421 -119.25642 37004 ft 457 kts 345°
2026-04-22 00:45 35.69581 -119.25954 37228 ft 456 kts 346°
2026-04-22 00:46 35.72753 -119.26266 37443 ft 456 kts 346°
2026-04-22 00:46 35.75912 -119.26577 37660 ft 455 kts 346°
2026-04-22 00:46 35.79085 -119.26890 37641 ft 460 kts 346°
2026-04-22 00:46 35.82268 -119.27202 37997 ft 456 kts 346°
2026-04-22 00:47 35.85431 -119.27515 38110 ft 457 kts 346°
2026-04-22 00:47 35.91818 -119.28146 38066 ft 463 kts 346°
2026-04-22 00:48 35.98232 -119.28780 38067 ft 467 kts 346°
2026-04-22 00:48 36.04743 -119.29425 38076 ft 472 kts 346°
2026-04-22 00:49 36.11289 -119.30074 38071 ft 472 kts 346°
2026-04-22 00:49 36.17835 -119.30725 38058 ft 472 kts 346°
2026-04-22 00:50 36.24378 -119.31376 38072 ft 473 kts 346°
2026-04-22 00:50 36.30949 -119.32031 38056 ft 474 kts 346°
2026-04-22 00:51 36.37521 -119.32687 38054 ft 474 kts 346°
2026-04-22 00:51 36.44095 -119.33345 38128 ft 474 kts 346°
2026-04-22 00:52 36.50703 -119.34007 38051 ft 478 kts 346°
2026-04-22 00:52 36.57337 -119.34673 38069 ft 478 kts 346°
2026-04-22 00:53 36.63983 -119.35342 38079 ft 479 kts 346°
2026-04-22 00:53 36.70615 -119.36010 38054 ft 483 kts 346°
2026-04-22 00:54 36.77323 -119.36686 38051 ft 484 kts 346°
2026-04-22 00:54 36.84041 -119.37366 38049 ft 484 kts 346°
2026-04-22 00:55 36.90753 -119.38045 38064 ft 484 kts 346°
2026-04-22 00:55 37.00823 -119.39067 38063 ft 484 kts 346°
2026-04-22 00:56 37.07531 -119.39751 38064 ft 485 kts 347°
2026-04-22 00:56 37.14280 -119.40439 38068 ft 488 kts 347°
2026-04-22 00:57 37.21054 -119.41129 38065 ft 488 kts 347°
2026-04-22 00:57 37.27813 -119.41820 38069 ft 488 kts 348°
2026-04-22 00:58 37.34589 -119.42514 38063 ft 489 kts 348°
2026-04-22 00:58 37.41373 -119.43210 38065 ft 489 kts 348°
2026-04-22 00:59 37.48161 -119.43908 38050 ft 489 kts 349°
2026-04-22 00:59 37.54930 -119.44605 38038 ft 487 kts 349°
2026-04-22 01:00 37.61645 -119.45300 38035 ft 487 kts 349°
2026-04-22 01:00 37.68402 -119.45996 38047 ft 487 kts 350°
2026-04-22 01:01 37.75146 -119.46695 38008 ft 485 kts 350°
2026-04-22 01:01 37.81868 -119.47393 37951 ft 485 kts 350°
2026-04-22 01:02 37.88586 -119.48101 38035 ft 485 kts 350°
2026-04-22 01:02 37.95334 -119.48793 38014 ft 486 kts 351°
2026-04-22 01:03 38.02096 -119.49499 37990 ft 487 kts 350°
2026-04-22 01:03 38.08848 -119.50205 38032 ft 488 kts 351°
2026-04-22 01:04 38.15647 -119.50917 37992 ft 491 kts 351°
2026-04-22 01:04 38.22465 -119.51632 37984 ft 491 kts 351°
2026-04-22 01:05 38.29280 -119.52347 38007 ft 493 kts 351°
2026-04-22 01:05 38.36142 -119.53069 37964 ft 495 kts 351°
2026-04-22 01:06 38.42969 -119.53792 37942 ft 495 kts 351°
2026-04-22 01:06 38.49761 -119.54508 37951 ft 488 kts 351°
2026-04-22 01:07 38.56558 -119.55228 37937 ft 492 kts 351°
2026-04-22 01:07 38.63389 -119.55954 37901 ft 493 kts 351°
2026-04-22 01:08 38.70237 -119.56682 37896 ft 495 kts 351°
2026-04-22 01:08 38.77111 -119.57413 37898 ft 496 kts 351°
2026-04-22 01:09 38.83990 -119.58149 37899 ft 496 kts 351°
2026-04-22 01:09 38.90875 -119.58885 37905 ft 496 kts 351°
2026-04-22 01:10 38.97763 -119.59623 37917 ft 496 kts 351°
2026-04-22 01:10 39.04637 -119.60360 37917 ft 496 kts 351°
2026-04-22 01:11 39.11501 -119.61099 37940 ft 500 kts 351°
2026-04-22 01:11 39.18492 -119.61853 37955 ft 501 kts 351°
2026-04-22 01:12 39.25426 -119.62601 37967 ft 500 kts 351°
2026-04-22 01:12 39.32339 -119.63348 37919 ft 502 kts 351°
2026-04-22 01:13 39.39360 -119.64109 37898 ft 503 kts 351°
2026-04-22 01:13 39.46329 -119.64866 37929 ft 503 kts 351°
2026-04-22 01:14 39.53279 -119.65445 37891 ft 507 kts
2026-04-22 01:14 39.60277 -119.63980 37860 ft 511 kts
2026-04-22 01:15 39.67295 -119.62453 37918 ft 512 kts
2026-04-22 01:15 39.74310 -119.60897 37890 ft 511 kts
2026-04-22 01:16 39.81333 -119.59331 37883 ft 511 kts
2026-04-22 01:16 39.88344 -119.57762 37870 ft 512 kts
2026-04-22 01:17 39.95362 -119.56189 37855 ft 512 kts
2026-04-22 01:17 40.02373 -119.54615 37856 ft 512 kts
2026-04-22 01:18 40.09397 -119.53033 37846 ft 513 kts
2026-04-22 01:18 40.16454 -119.51442 37867 ft 516 kts
2026-04-22 01:19 40.23498 -119.49849 37864 ft 517 kts
2026-04-22 01:19 40.30574 -119.48246 37863 ft 515 kts
2026-04-22 01:20 40.37629 -119.46645 37866 ft 515 kts
2026-04-22 01:20 40.44693 -119.45039 37868 ft 515 kts
2026-04-22 01:21 40.51750 -119.43429 37871 ft 514 kts
2026-04-22 01:21 40.58802 -119.41819 37870 ft 514 kts
2026-04-22 01:22 40.65853 -119.40204 37869 ft 514 kts
2026-04-22 01:22 40.72898 -119.38588 37873 ft 514 kts
2026-04-22 01:23 40.79939 -119.36968 37863 ft 513 kts
2026-04-22 01:23 40.86988 -119.35344 37859 ft 513 kts
2026-04-22 01:24 40.93982 -119.33730 37861 ft 514 kts
2026-04-22 01:24 41.01030 -119.32099 37864 ft 514 kts
2026-04-22 01:25 41.08057 -119.30469 37863 ft 514 kts
2026-04-22 01:25 41.15109 -119.28829 37831 ft 514 kts
2026-04-22 01:26 41.22156 -119.27188 37856 ft 514 kts
2026-04-22 01:26 41.29204 -119.25543 37855 ft 514 kts
2026-04-22 01:27 41.36253 -119.23893 37859 ft 513 kts
2026-04-22 01:27 41.43286 -119.22244 37837 ft 514 kts
2026-04-22 01:28 41.50334 -119.20588 37883 ft 514 kts
2026-04-22 01:28 41.57378 -119.18929 37860 ft 514 kts
2026-04-22 01:29 41.63233 -119.17548 37864 ft 514 kts
2026-04-22 01:29 41.70276 -119.15882 37865 ft 514 kts
2026-04-22 01:30 41.77325 -119.14211 37867 ft 514 kts 10°
2026-04-22 01:30 41.84367 -119.12539 37844 ft 514 kts 10°
2026-04-22 01:31 41.91409 -119.10863 37880 ft 514 kts 10°
2026-04-22 01:31 41.98443 -119.09184 37837 ft 513 kts 10°
2026-04-22 01:32 42.05476 -119.07502 37839 ft 514 kts 11°
2026-04-22 01:32 42.12476 -119.05825 37854 ft 514 kts 11°
2026-04-22 01:33 42.19515 -119.04134 37827 ft 513 kts 11°
2026-04-22 01:33 42.26556 -119.02439 37836 ft 514 kts 11°
2026-04-22 01:34 42.33607 -119.00737 37854 ft 515 kts 11°
2026-04-22 01:34 42.40674 -118.99028 37830 ft 515 kts 11°
2026-04-22 01:35 42.47727 -118.97319 37835 ft 515 kts 11°
2026-04-22 01:35 42.54741 -118.95615 37855 ft 515 kts 11°
2026-04-22 01:36 42.61806 -118.93894 37843 ft 516 kts 11°
2026-04-22 01:36 42.68874 -118.92169 37837 ft 516 kts 11°
2026-04-22 01:37 42.75934 -118.90442 37843 ft 516 kts 11°
2026-04-22 01:37 42.82997 -118.88710 37841 ft 516 kts 11°
2026-04-22 01:38 42.90074 -118.86970 37822 ft 517 kts 11°
2026-04-22 01:38 42.97128 -118.85233 37849 ft 520 kts 11°
2026-04-22 01:39 43.04248 -118.83475 37837 ft 520 kts 11°
2026-04-22 01:39 43.11364 -118.81715 37842 ft 520 kts 11°
2026-04-22 01:40 43.18483 -118.79950 37818 ft 520 kts 11°
2026-04-22 01:40 43.25621 -118.78177 37839 ft 523 kts 11°
2026-04-22 01:41 43.32794 -118.76390 37840 ft 523 kts 11°
2026-04-22 01:41 43.39900 -118.74281 37837 ft 520 kts 22°
2026-04-22 01:42 43.46707 -118.70908 37834 ft 520 kts 21°
2026-04-22 01:42 43.53536 -118.67567 37868 ft 522 kts 22°
2026-04-22 01:43 43.60339 -118.64229 37839 ft 521 kts 22°
2026-04-22 01:43 43.67179 -118.60863 37847 ft 521 kts 21°
2026-04-22 01:44 43.74001 -118.57498 37789 ft 520 kts 22°
2026-04-22 01:44 43.80826 -118.54124 37828 ft 521 kts 22°
2026-04-22 01:45 43.87647 -118.50744 37827 ft 520 kts 22°
2026-04-22 01:45 43.94468 -118.47355 37815 ft 520 kts 22°
2026-04-22 01:46 44.01271 -118.43966 37768 ft 519 kts 22°
2026-04-22 01:46 44.08084 -118.40566 37807 ft 520 kts 22°
2026-04-22 01:47 44.14899 -118.37155 37801 ft 520 kts 22°
2026-04-22 01:47 44.21660 -118.33763 37761 ft 520 kts 22°
2026-04-22 01:48 44.28469 -118.30336 37748 ft 520 kts 23°
2026-04-22 01:48 44.35292 -118.26899 37757 ft 521 kts 22°
2026-04-22 01:49 44.42110 -118.23451 37747 ft 521 kts 23°
2026-04-22 01:49 44.48914 -118.20004 37735 ft 520 kts 23°
2026-04-22 01:50 44.55720 -118.16548 37695 ft 520 kts 23°
2026-04-22 01:50 44.62538 -118.13077 37729 ft 521 kts 23°
2026-04-22 01:51 44.69343 -118.09603 37710 ft 520 kts 23°
2026-04-22 01:51 44.76159 -118.06115 37716 ft 521 kts 23°
2026-04-22 01:52 44.82967 -118.02622 37695 ft 521 kts 23°
2026-04-22 01:52 44.86372 -118.00889 37698 ft 522 kts 10°
2026-04-22 01:52 44.89780 -118.00540 34239 ft 456 kts 12°